Starlink 31595

operational
NORAD ID: 59273 Int'l Des: 2024-050 Owner: SPXS Country: US Constellation: starlink
LEOCIRCULAR

Über Starlink 31595

Beschreibung wird geladen...

Live-Position

3D-Globus wird geladen...

Nächste Überflüge

Höhenverlauf

Altitude vs Time

uPlot chart will show altitude changes over time

Zweizeiliger Elementsatz

1 59273U 24050V 25353.84007617 .00000495 00000-0 28832-4 0 9993
2 59273 53.1572 191.8701 0001166 85.4062 274.7072 15.30194212 98326
Epoch: 19. Dez. 2025 • Age: 13 hours

Aktueller Status

Höhe 476.4 km
Geschwindigkeit 7.63 km/s
Subsatellitenpunkt 30.31°N, 7.03°W
Startdatum 19. März 2024
Alter 1.7 years
Typ internet

Technische Details

Klassifizierung Payload
Masse 730.00 kg
Trockenmasse 700.00 kg
Gesamtmasse 730.00 kg
Länge 0.30 m
Durchmesser 4.10 m
Spannweite 29.00 m
Form Box + pan
Hersteller SPXS
Bus-Typ Starlink V2M
Phasenstatus In Orbit
Besitzer/Staat SPXS/US

Große Konstellationen

Loading constellations...